Tracking 30009 objects as of 8-Dec-2024
HD Live streaming from Space Station
objects crossing your sky now

STARLINK-31562

Track STARLINK-31562 now!
10-day predictions
STARLINK-31562 is classified as:


NORAD ID: 59340
Int'l Code: 2024-057W
Perigee: 449.4 km
Apogee: 452.8 km
Inclination: 43.0 °
Period: 93.5 minutes
Semi major axis: 6822 km
RCS: Unknown
Launch date: March 25, 2024
Source: United States (US)
Launch site: AIR FORCE EASTERN TEST RANGE (AFETR)
Your satellite tracking list
Your tracking list is empty




NASA's NSSDC Master Catalog

Two Line Element Set (TLE):
1 59340U 24057W   24342.83259354  .00005517  00000-0  13908-3 0  9995
2 59340  43.0035 269.2448 0002460 272.6455  87.4120 15.40734640 39712
Source of the keplerian elements: AFSPC